sat.trackr.live / text

‹ back to catalog

STARLINK-31503

NORAD 59200 · 2024-045Y

PAYLOAD ACTIVE UNKNOWN

§ Identity

Operator
Country
US
Launch date
2024-03-10
Launch site
AFETR
Launch vehicle
Mass (kg)
RCS (m²)

Purposes: comms

External: N2YO · Heavens-Above · Gunter

§ Orbital elements

Epoch: 2026-05-25T00:03:56.480256Z

Period
94.27 min
Inclination
42.9999°
Eccentricity
0.0001289
Mean motion
15.27579376 rev/d
Perigee alt
482.2 km
Apogee alt
483.9 km
Semi-major
6,861.2 km
B*
1.3077e-4
RAAN
21.4642°
Arg perigee
268.6100°
Mean anomaly
91.4604°
Rev number
12,483

§ Raw data

STARLINK-315031 59200U 24045Y   26145.00273704  .00003338  00000+0  13077-3 0  99992 59200  42.9999  21.4642 0001289 268.6100  91.4604 15.27579376124836

JSON: /api/v1/satellites/59200 · /tle

For live sub-satellite position, see the globe view (requires WebGL).

§ Visibility from observer

Set your observer location to see the next 7 days of passes ≥ 10°. The values pass through the URL so the page stays shareable.

No JS? Fill the form by hand. The geolocation button needs JavaScript.